Location: Most
(50.5133°N, 13.6207°E)
Time: 19:51:10
(UTC+02:00)

ISS - Pass Details

Date: 18 May 2019
Orbit: 407 x 410 km, 51.6° (Epoch: 23 May)

Event Time Altitude Azimuth Distance (km) Brightness Sun altitude
Rises 02:55:34 0° 285° (WNW) 2,340 -0.1 -15.7°
Reaches altitude 10° 02:57:39 10° 283° (WNW) 1,477 -1.1 -15.5°
Maximum altitude 03:00:58 73° 198° (SSW) 432 -3.9 -15.3°
Drops below altitude 10° 03:04:15 10° 114° (ESE) 1,474 -0.9 -15.0°
Sets 03:06:20 0° 113° (ESE) 2,334 0.1 -14.9°
